Regional Weather Roundup
Issued by NWS

Home | Current Version | Previous Version | Graphics & Text | Print | Product List | Glossary On
Versions: 1 2 3 4 5 6 7 8 9 10 11 12 13 14 15 16 17 18 19 20 21 22 23 24 25 26 27 28 29 30 31 32 33 34 35 36 37 38 39 40 41 42 43 44 45 46 47 48 49 50
000
ASUS43 KBIS 220910
RWRND

NORTH DAKOTA REGIONAL WEATHER ROUNDUP
NATIONAL WEATHER SERVICE BISMARCK ND
300 AM CST MON JAN 22 2018

NOTE: "FAIR" INDICATES FEW OR NO CLOUDS BELOW 12,000 FEET WITH NO
SIGNIFICANT WEATHER AND/OR OBSTRUCTIONS TO VISIBILITY.


NDZ001>003-009>011-017-221000-
NORTHWEST NORTH DAKOTA

CITY           SKY/WX    TMP DP  RH WIND       PRES   REMARKS
WILLISTON      CLEAR      5   2  87 CALM      30.00F
MINOT          CLOUDY    12   8  84 CALM      30.00S FOG
MINOT AFB      CLOUDY     7   3  86 CALM      30.00R
$$

NDZ018>021-031>035-040>046-221000-
SOUTHWEST NORTH DAKOTA

CITY           SKY/WX    TMP DP  RH WIND       PRES   REMARKS
BISMARCK       FOG       18  17  96 CALM      30.02F VSB 1/4
DICKINSON      CLEAR     16  12  84 W12       29.95S WCI   3
GARRISON         N/A      5   2  87 N3        30.00S
HETTINGER ARPT CLEAR     11   8  88 NW6       30.00S WCI   1
$$

NDZ004>008-012>016-024-026-027-054-221000-
NORTHEAST NORTH DAKOTA

CITY           SKY/WX    TMP DP  RH WIND       PRES   REMARKS
GRAND FORKS    CLOUDY    23  21  92 N7        30.09S WCI  15
GRND FRKS AFB  CLOUDY   N/A N/A N/A N6        30.10R
DEVILS LAKE    FOG       21  21 100 NE3       30.06S VSB 3/4
$$

NDZ022-023-025-028>030-036>039-047>053-221000-
SOUTHEAST NORTH DAKOTA

CITY           SKY/WX    TMP DP  RH WIND       PRES   REMARKS
FARGO          CLOUDY    25  23  92 NE15      30.04R WCI  13
JAMESTOWN      CLOUDY    24  21  88 NE10      30.02R WCI  14
$$





USA.gov is the U.S. government's official web portal to all federal, state and local government web resources and services.